User: anonymous   Login
Location: Newark
(46.2358°N, 112.1211°W)
Time: 01:10:39
(UTC+00:00)
Language:

DELFI C3 - Orbit

View from above orbital plane
View from above orbital plane
View from above satellite
View from above satellite

Ground track
Ground track

The orbit data is extracted from the following two-line orbital elements,

1 32789U 08021G   21127.56545793  .00001573  00000-0  10371-3 0  9998
2 32789  97.3795 164.5037 0009995 284.8082  75.2039 15.08846885710660
Epoch (UTC): 07 May 2021 13:34:15
Eccentricity: 0.0009995
inclination: 97.3795°
perigee height: 533 km
apogee height: 546 km
right ascension of ascending node: 164.5037°
argument of perigee: 284.8082°
revolutions per day: 15.08846885
mean anomaly at epoch: 75.2039°
orbit number at epoch: 71066

The dashed part of the orbit path shows where the satellite is in the earth's shadow,  

DLR